This demonstration page uses our WeatherBlox Daily Observations layout. Learn more.

Left ArrowRight Arrow

Hourly Observations for July 29, 2022

Temp ( °F °C ) Dew Point ( °F °C ) Humidity (%) Winds ( mph kmh ) Pressure ( in mb ) Visibility ( mi km ) Precip ( " mm )
12:59 am 00:59 Mostly Cloudy 79 26.1 73 22.8 82 82 SW 7 11 29.94 1014 10 16 0.00 0.00
1:59 am 01:59 Partly Cloudy 78 25.6 73 22.8 85 85 SSW 7 11 29.94 1014 10 16 0.00 0.00
2:59 am 02:59 Mostly Clear 78 25.6 73 22.8 85 85 SSW 7 11 29.94 1014 10 16 0.00 0.00
3:59 am 03:59 Partly Cloudy 80 26.7 73 22.8 79 79 W 6 9 29.94 1014 10 16 0.00 0.00
4:59 am 04:59 Partly Cloudy 80 26.7 73 22.8 79 79 WSW 6 9 29.94 1014 10 16 0.00 0.00
5:59 am 05:59 Mostly Cloudy 79 26.1 74 23.3 85 85 SW 6 9 29.96 1014 10 16 0.00 0.00
6:59 am 06:59 Mostly Cloudy 79 26.1 75 23.9 88 88 SSW 6 9 29.96 1015 9 14 0.00 0.00
7:59 am 07:59 Mostly Cloudy 81 27.2 75 23.9 82 82 SW 7 11 29.96 1015 10 16 0.00 0.00
8:59 am 08:59 Partly Cloudy 82 27.8 75 23.9 79 79 WSW 7 11 29.97 1015 10 16 0.00 0.00
9:59 am 09:59 Mostly Cloudy 84 28.9 76 24.4 77 77 SW 7 11 29.98 1015 10 16 0.00 0.00
10:59 am 10:59 Mostly Cloudy 86 30 76 24.4 72 72 WSW 6 9 29.98 1015 10 16 0.00 0.00
11:59 am 11:59 Mostly Cloudy 90 32.2 76 24.4 63 63 S 12 19 29.98 1015 10 16 0.00 0.00
12:59 pm 12:59 Mostly Cloudy 90 32.2 76 24.4 63 63 SW 10 17 29.96 1014 10 16 0.00 0.00
1:59 pm 13:59 Mostly Cloudy 91 32.8 74 23.3 57 57 SW 10 17 29.93 1013 10 16 0.00 0.00
2:59 pm 14:59 Mostly Cloudy 91 32.8 74 23.3 57 57 SW 13 20 29.92 1013 10 16 0.00 0.00
3:59 pm 15:59 Mostly Cloudy 91 32.8 74 23.3 57 57 SW 14 22 29.90 1012 10 16 0.00 0.00
4:59 pm 16:59 Mostly Cloudy 93 33.9 74 23.3 54 54 SW 8 13 29.88 1012 10 16 0.00 0.00
5:05 pm 17:05 Mostly Cloudy with Thunderstorms 93 33.9 74 23.3 54 54 SW 13 20 29.89 1012 10 16 0.00 0.00
5:30 pm 17:30 Cloudy with Thunderstorms 93 33.9 74 23.3 54 54 W 13 20 29.92 1013 10 16 0.00 0.00
5:59 pm 17:59 Cloudy with Thunderstorms 84 28.9 74 23.3 72 72 NNE 10 17 29.93 1014 10 16 0.00 0.00
6:37 pm 18:37 Cloudy with Strong Thunderstorms 83 28.3 75 23.9 77 77 NNW 20 31 29.94 1014 2 2 0.07 1.78
6:40 pm 18:40 Cloudy with Strong Thunderstorms 83 28.3 75 23.9 77 77 NNW 16 26 29.94 1014 1 1 0.12 3.05
6:49 pm 18:49 Cloudy with Strong Thunderstorms 83 28.3 75 23.9 77 77 NNW 15 24 29.94 1014 1 1 0.23 5.84
6:53 pm 18:53 Cloudy with Strong Thunderstorms 82 28 75 24 79 79 NW 16 26 29.95 1014 1 1 0.27 6.86
6:59 pm 18:59 Cloudy with Thunderstorms 79 26.1 74 23.3 85 85 NW 24 39 29.95 1014 1 2 0.32 8.13
7:08 pm 19:08 Cloudy with Strong Thunderstorms 79 26.1 74 23.3 85 85 WNW 25 41 29.96 1015 1 1 0.06 1.52
7:17 pm 19:17 Cloudy with Strong Thunderstorms 79 26.1 74 23.3 85 85 SW 9 15 29.94 1014 0 0 0.15 3.81
7:26 pm 19:26 Mostly Cloudy with Thunderstorms 78 25.6 74 23.3 87 87 SW 7 11 29.96 1015 1 1 0.25 6.35
7:30 pm 19:30 Mostly Cloudy with Thunderstorms 78 25.6 74 23.3 87 87 S 8 13 29.95 1014 3 5 0.30 7.62
7:47 pm 19:47 Mostly Cloudy with Thunderstorms 76 24.4 74 23.3 94 94 SSW 8 13 29.96 1015 3 4 0.46 11.68
7:56 pm 19:56 Mostly Cloudy with Thunderstorms 75 24 73 23 94 94 SSW 8 13 29.95 1014 5 8 0.54 13.72
7:59 pm 19:59 Mostly Cloudy with Thunderstorms 76 24.4 74 23.3 94 94 SSW 8 13 29.95 1014 7 11 0.56 14.22
8:51 pm 20:51 Mostly Cloudy 76 24.4 74 23.3 94 94 S 8 13 29.95 1014 10 16 0.22 5.59
8:59 pm 20:59 Mostly Cloudy 77 25 74 23.3 90 90 S 5 7 29.94 1014 10 16 0.22 5.59
9:59 pm 21:59 Mostly Cloudy 76 24.4 74 23.3 94 94 S 8 13 29.98 1015 10 16 0.00 0.00
10:59 pm 22:59 Mostly Cloudy with Thunderstorms 76 24.4 74 23.3 94 94 S 10 17 29.98 1015 10 16 0.00 0.00
11:29 pm 23:29 Mostly Cloudy 76 24.4 74 23.3 94 94 S 7 11 29.99 1016 10 16 0.00 0.00
11:59 pm 23:59 Mostly Cloudy 77 25 74 23.3 90 90 S 8 13 29.99 1016 10 16 0.00 0.00

Powered by AerisWeather